Terug naar catalogus

FENGYUN 1C DEB

ActiefSSO
NORAD 30873·DEBRIS·🇨🇳 China

Gelanceerd May 10, 1999 vanaf Taiyuan Satellite Launch Center

Loading…

Volgende Passages (komende 24 uur)

TLE

VersSource: Space-Track

Epoch: Sep 14, 2026, 22:51 UTC

1 30873U 99025AXK 26257.95257135  .00000175  00000-0  98186-4 0  9994
2 30873  98.6223 255.7706 0107775 210.8867 148.5941 14.19347826 11115

Volg FENGYUN 1C DEB in realtime met AllMySat

Download on the App Store